| time (UTC) | temp F | wind direction | speed MPH | gust MPH | rain 1hr in | rain 24hr in | rain mn in | humidity % | barometer mb |
| 20260506164006 | 51 | 159 | 1.0 | 4.0 | 0.05 | 0.17 | 0.17 | 88 | 1006.8 |
| 20260506162506 | 51 | 208 | 1.0 | 3.0 | 0.04 | 0.16 | 0.16 | 86 | 1006.8 |
| 20260506161005 | 52 | 173 | 3.0 | 13.0 | 0.04 | 0.14 | 0.14 | 86 | 1006.9 |
| 20260506155505 | 53 | 189 | 2.0 | 6.0 | 0.04 | 0.13 | 0.13 | 87 | 1006.8 |
| 20260506154006 | 53 | 207 | 2.0 | 9.0 | 0.04 | 0.13 | 0.13 | 87 | 1006.7 |
| 20260506152504 | 53 | 142 | 2.0 | 5.0 | 0.03 | 0.12 | 0.12 | 88 | 1006.4 |
| 20260506151007 | 53 | 174 | 1.0 | 3.0 | 0.02 | 0.10 | 0.10 | 87 | 1006.4 |
| 20260506145505 | 54 | 174 | 0.0 | 5.0 | 0.04 | 0.09 | 0.09 | 85 | 1006.2 |
| 20260506144003 | 54 | 169 | 0.0 | 4.0 | 0.03 | 0.09 | 0.09 | 85 | 1006.1 |
| 20260506142503 | 54 | 202 | 0.0 | 2.0 | 0.04 | 0.09 | 0.09 | 84 | 1005.9 |
| 20260506141003 | 55 | 234 | 0.0 | 2.0 | 0.04 | 0.08 | 0.08 | 84 | 1005.8 |
| 20260506135504 | 55 | 242 | 0.0 | 1.0 | 0.02 | 0.06 | 0.06 | 84 | 1005.7 |
| 20260506134003 | 55 | 246 | 0.0 | 2.0 | 0.02 | 0.06 | 0.06 | 82 | 1005.8 |
| 20260506132503 | 55 | 250 | 0.0 | 2.0 | 0.02 | 0.05 | 0.05 | 82 | 1006.0 |
| 20260506131002 | 56 | 290 | 0.0 | 2.0 | 0.01 | 0.04 | 0.04 | 81 | 1005.7 |
| 20260506125504 | 56 | 279 | 0.0 | 4.0 | 0.01 | 0.04 | 0.04 | 80 | 1005.6 |
| 20260506124003 | 57 | 293 | 0.0 | 1.0 | 0.00 | 0.03 | 0.03 | 77 | 1005.6 |
| 20260506122502 | 57 | 294 | 0.0 | 2.0 | 0.01 | 0.03 | 0.03 | 78 | 1005.5 |
| 20260506121002 | 57 | 329 | 0.0 | 0.0 | 0.02 | 0.03 | 0.03 | 77 | 1005.5 |
| 20260506115507 | 56 | 332 | 0.0 | 2.0 | 0.02 | 0.03 | 0.03 | 84 | 1005.4 |
| 20260506114006 | 55 | 38 | 0.0 | 2.0 | 0.03 | 0.03 | 0.03 | 82 | 1005.4 |
| 20260506112506 | 56 | 38 | 1.0 | 4.0 | 0.02 | 0.02 | 0.02 | 79 | 1005.5 |
| 20260506111007 | 58 | 360 | 1.0 | 4.0 | 0.01 | 0.01 | 0.01 | 72 | 1005.8 |
| 20260506105506 | 60 | 175 | 0.0 | 2.0 | 0.01 | 0.01 | 0.01 | 66 | 1005.8 |
| 20260506104007 | 60 | 258 | 0.0 | 2.0 | 0.00 | 0.00 | 0.00 | 61 | 1005.8 |
| 20260506102505 | 62 | 269 | 0.0 | 2.0 | 0.00 | 0.00 | 0.00 | 61 | 1006.0 |
| 20260506101005 | 62 | 267 | 0.0 | 2.0 | 0.00 | 0.00 | 0.00 | 58 | 1006.0 |
| 20260506095505 | 62 | 273 | 0.0 | 2.0 | 0.00 | 0.00 | 0.00 | 59 | 1006.1 |
| 20260506094005 | 62 | 290 | 0.0 | 2.0 | 0.00 | 0.00 | 0.00 | 56 | 1006.2 |
| 20260506092506 | 62 | 268 | 0.0 | 1.0 | 0.00 | 0.00 | 0.00 | 60 | 1006.1 |
| 20260506091006 | 62 | 195 | 0.0 | 2.0 | 0.00 | 0.00 | 0.00 | 62 | 1006.2 |
| 20260506085505 | 61 | 204 | 1.0 | 3.0 | 0.00 | 0.00 | 0.00 | 64 | 1006.0 |
| 20260506084004 | 60 | 169 | 0.0 | 2.0 | 0.00 | 0.00 | 0.00 | 69 | 1005.9 |
| 20260506082505 | 59 | 167 | 0.0 | 0.0 | 0.00 | 0.00 | 0.00 | 68 | 1005.9 |
| 20260506081004 | 59 | 167 | 0.0 | 4.0 | 0.00 | 0.00 | 0.00 | 69 | 1005.9 |
| 20260506072503 | 56 | 150 | 0.0 | 3.0 | 0.00 | 0.00 | 0.00 | 76 | 1005.8 |
| 20260506071003 | 54 | 179 | 1.0 | 3.0 | 0.00 | 0.00 | 0.00 | 77 | 1005.7 |
| 20260506062504 | 49 | 178 | 0.0 | 0.0 | 0.00 | 0.00 | 0.00 | 88 | 1005.3 |
| 20260506061003 | 48 | 178 | 0.0 | 0.0 | 0.00 | 0.00 | 0.00 | 87 | 1005.2 |
| 20260506051008 | 47 | 178 | 0.0 | 0.0 | 0.00 | 0.00 | 0.00 | 85 | 1005.6 |
| 20260506044007 | 48 | 178 | 0.0 | 0.0 | 0.00 | 0.00 | 0.00 | 85 | 1005.6 |
| 20260506042507 | 48 | 178 | 0.0 | 0.0 | 0.00 | 0.00 | 0.00 | 83 | 1005.6 |
| 20260506041006 | 48 | 178 | 0.0 | 0.0 | 0.00 | 0.00 | 0.00 | 83 | 1005.5 |
| 20260506035506 | 48 | 178 | 0.0 | 0.0 | 0.00 | 0.00 | 0.00 | 84 | 1005.6 |
| 20260506034006 | 48 | 143 | 0.0 | 0.0 | 0.00 | 0.00 | 0.00 | 84 | 1005.6 |
| 20260506032506 | 48 | 143 | 0.0 | 2.0 | 0.00 | 0.00 | 0.00 | 86 | 1005.7 |
| 20260506031008 | 47 | 144 | 0.0 | 2.0 | 0.00 | 0.00 | 0.00 | 87 | 1006.0 |
| 20260506025506 | 47 | 143 | 0.0 | 2.0 | 0.00 | 0.00 | 0.00 | 88 | 1006.2 |
| 20260506024005 | 46 | 143 | 0.0 | 1.0 | 0.00 | 0.00 | 0.00 | 88 | 1006.1 |
| 20260506022507 | 46 | 143 | 0.0 | 2.0 | 0.00 | 0.00 | 0.00 | 87 | 1006.0 |
| 20260506021005 | 46 | 143 | 0.0 | 0.0 | 0.00 | 0.00 | 0.00 | 87 | 1006.0 |
| 20260506015505 | 46 | 143 | 0.0 | 0.0 | 0.00 | 0.00 | 0.00 | 87 | 1006.2 |
| 20260506014006 | 46 | 143 | 0.0 | 0.0 | 0.00 | 0.00 | 0.00 | 86 | 1006.4 |
| 20260506012505 | 47 | 143 | 0.0 | 0.0 | 0.00 | 0.00 | 0.00 | 86 | 1006.9 |
| 20260506011004 | 47 | 144 | 0.0 | 2.0 | 0.00 | 0.00 | 0.00 | 85 | 1006.9 |
| 20260506005504 | 47 | 143 | 0.0 | 0.0 | 0.00 | 0.00 | 0.00 | 85 | 1006.7 |
| 20260506004004 | 48 | 143 | 0.0 | 0.0 | 0.00 | 0.00 | 0.00 | 85 | 1006.6 |
| 20260506002504 | 49 | 143 | 0.0 | 0.0 | 0.00 | 0.00 | 0.00 | 83 | 1006.9 |
| 20260506001004 | 49 | 143 | 0.0 | 0.0 | 0.00 | 0.00 | 0.00 | 83 | 1007.1 |
| 20260505235504 | 50 | 143 | 0.0 | 0.0 | 0.00 | 0.00 | 0.00 | 83 | 1007.2 |
| 20260505234008 | 50 | 143 | 0.0 | 0.0 | 0.00 | 0.00 | 0.00 | 82 | 1007.3 |
| 20260505232508 | 50 | 143 | 0.0 | 2.0 | 0.00 | 0.00 | 0.00 | 82 | 1007.6 |
| 20260505231008 | 51 | 144 | 0.0 | 0.0 | 0.00 | 0.00 | 0.00 | 82 | 1007.7 |
| 20260505225509 | 51 | 144 | 0.0 | 2.0 | 0.00 | 0.00 | 0.00 | 82 | 1007.6 |
| 20260505224008 | 51 | 154 | 0.0 | 2.0 | 0.00 | 0.00 | 0.00 | 82 | 1007.6 |
| 20260505222509 | 51 | 154 | 0.0 | 3.0 | 0.00 | 0.00 | 0.00 | 82 | 1007.6 |
| 20260505221008 | 51 | 150 | 0.0 | 2.0 | 0.00 | 0.00 | 0.00 | 83 | 1007.5 |
| 20260505215507 | 51 | 160 | 0.0 | 2.0 | 0.00 | 0.16 | 0.16 | 83 | 1008.5 |
| 20260505214009 | 52 | 160 | 0.0 | 1.0 | 0.00 | 0.16 | 0.16 | 83 | 1008.6 |
| 20260505212506 | 52 | 160 | 0.0 | 0.0 | 0.00 | 0.16 | 0.16 | 83 | 1008.7 |
| 20260505211007 | 52 | 160 | 0.0 | 2.0 | 0.00 | 0.16 | 0.16 | 84 | 1008.7 |
| 20260505205508 | 51 | 156 | 1.0 | 3.0 | 0.00 | 0.16 | 0.16 | 84 | 1008.5 |
| 20260505204006 | 51 | 155 | 0.0 | 1.0 | 0.00 | 0.16 | 0.16 | 84 | 1008.4 |
| 20260505202506 | 51 | 155 | 0.0 | 1.0 | 0.00 | 0.16 | 0.16 | 84 | 1008.3 |
| 20260505201007 | 52 | 155 | 0.0 | 0.0 | 0.00 | 0.16 | 0.16 | 83 | 1008.0 |
| 20260505195505 | 53 | 155 | 0.0 | 0.0 | 0.00 | 0.16 | 0.16 | 83 | 1007.8 |
| 20260505194005 | 53 | 155 | 0.0 | 0.0 | 0.00 | 0.16 | 0.16 | 83 | 1007.6 |
| 20260505192505 | 53 | 155 | 1.0 | 3.0 | 0.00 | 0.16 | 0.16 | 83 | 1007.6 |
| 20260505191005 | 53 | 169 | 1.0 | 4.0 | 0.00 | 0.16 | 0.16 | 83 | 1007.5 |
| 20260505185506 | 53 | 169 | 0.0 | 2.0 | 0.01 | 0.16 | 0.16 | 84 | 1007.2 |
| 20260505184004 | 53 | 169 | 0.0 | 2.0 | 0.01 | 0.16 | 0.16 | 84 | 1007.0 |
| 20260505182504 | 54 | 169 | 0.0 | 2.0 | 0.01 | 0.16 | 0.16 | 84 | 1006.9 |
| 20260505181004 | 54 | 169 | 0.0 | 4.0 | 0.01 | 0.16 | 0.16 | 85 | 1006.7 |
| 20260505175504 | 54 | 169 | 0.0 | 2.0 | 0.00 | 0.15 | 0.15 | 85 | 1007.0 |
| 20260505174004 | 54 | 169 | 0.0 | 2.0 | 0.01 | 0.15 | 0.15 | 84 | 1006.9 |
| 20260505172509 | 55 | 155 | 2.0 | 2.0 | 0.06 | 0.15 | 0.15 | 83 | 1007.1 |
| 20260505171009 | 56 | 155 | 1.0 | 3.0 | 0.06 | 0.15 | 0.15 | 82 | 1007.0 |
| 20260505165508 | 57 | 186 | 0.0 | 5.0 | 0.06 | 0.15 | 0.15 | 78 | 1006.9 |